Wind_Speed
16 17 18 19 20 20 21 22 23 24 26 28 29 30 30 31 31 30 29 30 30 29 27 27 26 26 26 25 25 25 24 24 23 21 19 18 17 17 17 17 17 18 18 18
17 17 19 19 20 20 21 22 24 25 26 28 29 30 30 30 29 29 29 29 29 28 28 27 26 26 25 25 24 24 23 22 22 21 18 17 16 15 15 16 17 17 17 17
18 18 20 20 20 21 21 23 24 26 27 28 29 29 29 29 29 29 29 29 28 28 27 26 26 25 24 24 24 23 22 21 21 20 18 17 16 15 15 16 16 17 17 16
19 20 20 21 21 22 22 23 25 26 27 28 28 28 29 29 30 29 29 29 29 28 27 26 26 25 24 23 23 22 21 20 19 19 17 16 15 15 14 15 16 16 16 15
19 20 22 22 21 22 23 25 26 27 27 27 27 27 28 29 29 29 30 30 29 28 26 26 25 24 23 22 22 21 20 18 18 18 16 15 15 15 15 15 15 15 15 14
21 21 23 24 23 24 25 26 26 26 27 28 28 28 28 29 30 30 30 29 28 27 26 25 24 23 22 21 20 20 19 18 18 17 16 16 15 14 15 15 15 14 13 12
23 23 24 25 25 25 25 27 27 27 29 29 29 29 30 30 30 30 29 28 27 27 25 24 23 22 21 20 20 19 19 18 17 16 16 15 14 14 14 14 13 13 12 12
24 25 25 26 26 26 27 28 29 29 29 29 29 30 30 30 29 29 28 27 26 26 24 23 22 21 21 20 19 19 18 17 16 16 15 15 14 13 13 13 13 12 12 12
25 25 27 28 28 29 29 30 30 30 30 30 30 29 29 29 28 27 27 26 26 25 24 22 21 20 19 19 18 18 18 17 16 15 14 14 13 12 12 12 12 11 11 11
26 27 28 29 30 31 31 31 31 31 31 31 30 30 30 30 28 27 27 26 25 24 23 21 20 19 18 18 18 17 16 16 15 15 14 13 12 12 12 11 11 11 12 12
28 29 30 31 31 32 32 32 32 32 31 31 31 30 30 29 27 27 26 25 23 22 21 20 19 17 16 16 16 15 15 15 15 14 12 12 12 12 12 12 12 12 12 13
30 31 32 32 32 33 33 32 32 32 31 30 29 29 28 27 26 25 23 22 21 20 19 17 16 16 16 16 15 15 14 14 13 12 12 12 12 12 11 11 11 12 13 14
31 32 33 33 33 33 33 33 32 31 30 29 28 27 26 25 24 23 22 21 20 19 17 16 16 16 15 15 14 14 14 14 13 13 12 12 12 11 11 11 12 12 13 15
31 32 32 32 33 32 32 32 31 30 29 28 27 26 25 25 24 23 21 21 20 19 18 17 17 16 16 15 15 15 15 14 14 13 13 12 11 11 12 12 13 12 13 14
31 32 32 32 32 31 31 31 30 29 29 28 27 26 25 24 24 23 22 21 20 19 18 18 17 17 16 15 15 15 15 15 14 13 12 12 11 12 12 13 13 12 12 12
31 31 31 31 31 30 30 29 29 28 27 26 26 25 24 23 23 22 22 21 20 19 18 17 17 17 16 15 15 15 15 15 13 13 12 12 11 11 11 11 12 12 12 13
31 31 31 31 31 30 30 29 28 27 27 26 25 25 23 22 22 22 22 20 20 19 19 18 17 17 17 16 15 15 14 14 13 13 12 12 11 11 10 10 11 12 13 14
31 32 32 32 31 30 29 29 28 27 27 26 26 24 23 22 22 22 22 21 20 19 20 19 17 16 16 16 15 15 14 14 14 13 13 12 12 11 10 11 11 11 12 12
31 32 32 31 31 30 29 28 27 27 26 25 25 24 23 23 23 23 22 21 20 21 20 18 17 16 16 16 15 14 15 14 14 13 13 12 12 11 11 11 10 11 11 11
32 32 32 31 31 30 29 29 28 27 27 26 25 24 24 23 22 22 22 21 20 20 19 18 17 17 16 16 15 14 14 14 14 14 13 12 11 11 10 10 10 11 11 11
33 32 32 32 31 31 31 30 30 29 28 27 26 25 24 23 22 22 21 21 20 19 19 18 18 17 16 16 15 14 14 13 13 13 12 11 11 11 10 10 11 11 10 11
33 33 33 33 33 33 32 32 31 31 29 27 26 24 24 24 22 21 20 20 19 19 18 18 17 17 16 16 16 15 14 13 12 12 12 11 11 11 11 11 11 10 10 10
35 35 35 35 34 34 33 33 32 31 29 27 26 25 24 22 21 20 19 19 19 19 18 17 17 17 17 17 16 15 14 13 12 12 12 11 11 11 11 11 11 10 10 10
37 36 36 35 34 33 33 32 31 30 29 27 26 25 24 22 21 20 20 20 19 18 18 18 18 18 17 17 16 15 14 13 13 12 11 11 11 11 11 11 11 10 11 11
38 37 36 35 33 32 32 31 30 29 28 27 26 25 24 23 22 21 21 20 19 18 18 18 18 17 17 16 15 15 14 13 12 11 11 11 11 11 11 11 11 10 10 10
37 36 35 34 33 32 31 30 29 27 27 25 25 25 24 23 21 21 20 19 18 18 18 18 18 17 16 15 15 14 14 13 12 12 11 12 12 12 12 11 11 11 11 11
35 34 33 32 31 30 30 29 27 26 25 24 23 23 23 22 21 20 19 17 17 17 17 16 16 16 15 15 14 14 13 13 13 13 13 12 12 11 11 12 11 11 11 12
Wind_Direction
300 301 303 304 303 302 302 305 305 306 306 308 311 311 314 317 319 319 319 320 320 321 320 321 322 322 321 319 318 318 317 315 315 313 310 307 305 305 304 303 302 302 301 299
303 305 305 307 307 307 305 304 304 306 307 309 312 313 315 317 318 319 319 320 320 321 321 321 322 322 321 320 319 318 317 316 316 318 314 309 307 306 307 306 306 305 302 301
308 310 310 309 312 311 308 307 306 306 308 310 313 315 317 317 318 318 319 320 320 321 320 321 323 322 321 322 322 319 317 317 317 319 318 314 309 305 305 305 305 305 304 302
308 309 307 311 311 309 307 306 305 307 310 312 314 315 315 315 317 319 320 320 319 320 320 322 324 323 322 323 323 321 319 318 319 320 318 319 316 312 309 309 310 308 305 302
310 309 307 311 311 309 308 306 307 308 309 311 313 313 314 316 318 318 319 320 319 319 320 321 322 324 325 325 323 321 320 319 321 324 324 322 318 317 315 315 318 317 313 308
308 308 306 310 310 309 307 305 307 309 310 311 311 311 313 316 317 317 317 317 318 319 319 321 322 324 324 324 323 322 322 321 321 323 325 325 323 320 321 321 323 322 318 313
306 306 305 308 309 309 306 306 308 309 310 309 310 311 313 314 315 316 316 316 316 318 318 319 321 322 320 319 320 320 321 321 322 323 324 327 325 324 324 325 323 320 318 317
306 306 306 306 306 307 307 306 306 308 309 309 310 310 311 313 315 316 315 315 316 316 316 316 317 318 319 319 319 319 321 322 321 323 325 326 327 325 323 323 321 319 317 318
301 301 302 302 304 305 305 306 306 307 308 308 309 310 311 311 313 315 315 315 315 316 316 314 315 316 318 319 318 318 318 320 321 322 324 325 326 324 322 324 324 323 322 321
299 300 299 300 302 303 304 306 306 306 306 306 308 309 310 311 310 312 315 315 315 315 316 314 313 314 315 316 316 316 317 317 319 320 321 323 324 324 324 324 327 325 323 323
299 300 300 300 301 302 304 305 305 305 305 305 306 308 310 311 311 312 314 314 314 315 315 313 312 313 315 316 315 316 317 316 317 318 320 322 322 323 324 325 326 327 325 326
299 301 301 301 301 302 303 303 304 305 305 305 306 308 308 308 309 311 312 313 313 315 315 315 314 315 317 317 318 319 321 320 319 321 322 321 321 321 320 321 324 326 326 326
298 300 300 300 300 302 302 302 303 304 305 305 305 305 306 307 308 309 310 310 312 314 315 315 313 313 316 317 318 319 319 318 318 317 318 317 318 318 317 317 318 319 321 323
297 299 301 301 301 303 303 304 303 304 305 304 304 304 304 306 306 306 306 306 309 310 310 311 310 311 314 314 315 316 317 316 317 317 315 315 317 316 316 316 317 318 321 324
295 298 300 302 303 304 304 305 305 304 304 303 302 303 304 304 304 304 304 304 305 307 309 308 307 308 310 309 310 312 315 316 317 316 314 313 315 314 314 316 318 321 325 327
294 297 299 301 303 304 304 305 305 304 304 303 301 301 300 301 303 304 305 304 304 306 307 305 304 304 306 307 308 311 312 311 312 313 314 313 312 311 314 317 318 322 325 327
293 295 298 300 302 303 304 304 303 303 303 302 303 301 300 302 304 305 306 304 303 303 303 303 301 301 304 308 308 307 308 308 309 310 311 310 309 312 313 313 314 319 325 329
292 294 296 298 300 300 301 300 300 301 302 303 302 302 300 301 302 303 303 300 300 301 302 301 299 299 302 304 306 306 305 304 305 305 305 306 305 309 311 313 314 317 324 330
290 291 293 295 295 295 296 297 297 299 300 301 301 298 298 299 300 301 301 299 297 299 299 297 295 295 297 300 301 302 303 305 305 303 302 303 304 305 305 308 314 321 325 328
288 289 290 291 291 291 291 292 293 295 296 297 296 295 296 296 297 299 300 297 296 296 295 294 292 289 290 293 295 298 301 303 303 302 301 300 300 300 302 304 310 316 319 321
286 287 288 288 288 288 288 289 290 292 293 293 292 291 292 293 294 296 297 295 294 293 292 291 290 286 285 287 287 293 298 300 301 301 300 299 299 300 300 303 308 312 315 317
284 284 285 286 287 287 287 286 287 289 289 288 287 287 287 289 292 293 293 293 293 293 291 289 287 286 285 286 286 288 291 293 295 297 300 299 296 298 300 303 305 308 312 314
283 284 284 285 285 286 285 283 283 285 285 283 283 283 284 286 288 288 290 289 288 288 287 286 286 285 285 286 286 285 286 286 287 291 295 298 297 297 298 300 300 300 303 308
281 282 283 283 283 284 283 281 280 280 280 280 279 279 280 282 284 285 287 286 284 284 283 283 285 285 284 285 285 283 281 280 281 284 288 292 295 297 297 296 297 298 299 300
278 280 282 282 281 281 281 279 277 277 278 277 276 276 277 278 280 282 284 285 283 281 280 280 281 282 282 282 282 280 278 276 277 278 279 282 286 291 295 297 298 297 296 296
278 279 280 280 279 280 279 277 276 275 275 275 274 274 274 274 275 277 280 283 282 279 277 276 276 278 278 280 281 279 276 273 274 274 277 281 284 286 288 293 299 298 297 297
276 277 278 277 276 276 276 274 273 273 273 274 274 274 273 272 272 273 275 278 279 276 273 271 273 274 275 277 277 273 271 273 274 275 277 281 282 284 289 291 293 293 293 294
Height
5842 5840 5838 5836 5834 5832 5829 5827 5824 5820 5816 5811 5807 5802 5797 5792 5787 5782 5777 5772 5767 5762 5757 5753 5748 5744 5740 5735 5732 5728 5724 5721 5717 5715 5713 5711 5710 5709 5708 5708 5707 5705 5704 5703
5838 5836 5834 5832 5830 5827 5825 5822 5818 5815 5811 5806 5801 5797 5792 5788 5782 5777 5772 5767 5762 5758 5753 5749 5744 5740 5736 5732 5728 5724 5720 5717 5714 5711 5708 5707 5706 5705 5704 5704 5702 5701 5700 5698
5833 5832 5829 5827 5825 5823 5820 5816 5813 5809 5806 5801 5796 5792 5788 5783 5778 5772 5768 5763 5758 5753 5749 5745 5740 5736 5732 5728 5724 5720 5717 5714 5711 5708 5706 5704 5703 5702 5701 5700 5698 5697 5695 5694
5829 5828 5825 5826 5821 5818 5815 5811 5807 5804 5800 5796 5792 5788 5783 5778 5773 5769 5764 5759 5754 5749 5745 5741 5737 5732 5728 5724 5720 5717 5713 5711 5708 5705 5703 5701 5700 5698 5697 5696 5695 5693 5691 5690
5825 5823 5820 5818 5816 5812 5809 5805 5801 5798 5794 5791 5787 5783 5778 5773 5769 5764 5759 5754 5749 5745 5741 5737 5733 5729 5725 5721 5717 5714 5710 5708 5706 5703 5700 5698 5697 5695 5694 5693 5691 5689 5688 5686
5821 5818 5816 5814 5810 5807 5805 5799 5796 5792 5789 5785 5781 5778 5774 5769 5764 5759 5755 5750 5745 5741 5737 5733 5729 5725 5722 5718 5714 5711 5708 5705 5703 5700 5698 5696 5694 5693 5691 5690 5688 5687 5686 5684
5817 5814 5810 5808 5805 5802 5800 5796 5791 5787 5783 5779 5776 5772 5768 5763 5759 5755 5750 5745 5741 5737 5733 5729 5726 5722 5719 5715 5712 5708 5705 5702 5700 5698 5695 5694 5692 5690 5689 5688 5686 5685 5683 5681
5812 5809 5808 5803 5800 5798 5794 5789 5785 5781 5777 5773 5770 5766 5762 5757 5753 5749 5745 5741 5737 5733 5729 5726 5722 5719 5715 5712 5709 5706 5703 5700 5698 5695 5693 5691 5690 5689 5687 5686 5684 5682 5681 5679
5808 5806 5801 5797 5794 5791 5787 5783 5780 5776 5772 5768 5764 5760 5756 5752 5748 5744 5740 5736 5732 5728 5725 5721 5718 5715 5712 5709 5707 5704 5701 5699 5696 5694 5691 5690 5688 5687 5685 5684 5682 5680 5679 5677
5801 5799 5795 5792 5788 5784 5780 5777 5773 5769 5765 5761 5758 5754 5750 5746 5742 5738 5735 5731 5727 5724 5720 5717 5714 5711 5709 5706 5704 5702 5699 5696 5694 5692 5690 5688 5686 5685 5683 5681 5680 5678 5677 5675
5795 5792 5789 5785 5781 5778 5774 5770 5766 5762 5759 5755 5751 5747 5743 5739 5736 5733 5729 5726 5722 5719 5716 5713 5710 5708 5706 5703 5701 5699 5696 5694 5692 5689 5688 5686 5684 5683 5681 5679 5677 5676 5674 5672
5789 5785 5782 5778 5774 5771 5767 5763 5759 5755 5751 5748 5745 5741 5738 5734 5731 5727 5724 5721 5718 5715 5712 5710 5707 5705 5703 5700 5698 5696 5694 5691 5689 5687 5685 5684 5682 5681 5679 5677 5676 5674 5672 5670
5781 5778 5774 5771 5767 5763 5759 5756 5752 5748 5745 5742 5738 5735 5732 5728 5725 5723 5720 5717 5715 5712 5709 5706 5704 5702 5700 5698 5696 5693 5691 5689 5687 5685 5683 5681 5679 5678 5677 5675 5673 5671 5669 5667
5773 5770 5766 5763 5760 5756 5752 5748 5745 5741 5738 5735 5732 5729 5726 5723 5720 5718 5716 5713 5710 5708 5706 5703 5701 5699 5697 5695 5693 5691 5688 5686 5684 5682 5680 5679 5677 5675 5674 5672 5671 5669 5667 5665
5765 5762 5759 5755 5752 5749 5745 5741 5738 5735 5732 5729 5726 5723 5720 5718 5716 5713 5711 5708 5706 5704 5702 5700 5698 5696 5694 5692 5690 5688 5686 5683 5681 5679 5678 5676 5674 5672 5671 5669 5667 5666 5664 5662
5756 5753 5751 5748 5744 5741 5738 5735 5731 5729 5726 5723 5720 5718 5715 5713 5711 5708 5706 5704 5701 5699 5697 5696 5694 5692 5690 5688 5686 5685 5683 5681 5678 5677 5675 5673 5671 5669 5668 5666 5665 5663 5662 5659
5748 5746 5743 5740 5737 5734 5731 5728 5725 5722 5720 5717 5714 5712 5709 5707 5705 5703 5701 5699 5697 5695 5693 5691 5689 5687 5686 5684 5682 5681 5679 5678 5676 5674 5672 5670 5668 5666 5665 5663 5662 5660 5659 5657
5739 5737 5734 5732 5729 5726 5724 5721 5719 5716 5714 5711 5708 5706 5704 5702 5700 5698 5696 5694 5692 5690 5688 5686 5685 5683 5681 5680 5678 5677 5675 5674 5672 5671 5669 5667 5665 5664 5662 5661 5659 5658 5656 5654
5730 5727 5725 5723 5721 5719 5717 5715 5712 5710 5708 5705 5703 5700 5698 5696 5694 5692 5690 5688 5686 5685 5683 5681 5680 5678 5677 5675 5674 5673 5671 5670 5669 5667 5665 5664 5663 5661 5660 5658 5657 5656 5654 5652
5720 5718 5716 5715 5712 5711 5709 5707 5705 5704 5701 5699 5696 5694 5692 5690 5688 5686 5684 5682 5681 5679 5677 5676 5675 5674 5672 5671 5670 5669 5667 5666 5665 5663 5662 5660 5659 5658 5657 5656 5655 5653 5652 5650
5710 5709 5707 5705 5704 5702 5700 5699 5698 5696 5694 5692 5689 5687 5685 5684 5682 5680 5678 5676 5675 5673 5672 5670 5669 5668 5668 5666 5665 5664 5663 5662 5661 5659 5658 5657 5656 5655 5654 5653 5652 5651 5649 5648
5700 5698 5697 5696 5694 5693 5691 5690 5688 5687 5685 5683 5682 5680 5678 5677 5675 5673 5672 5670 5669 5667 5666 5665 5664 5664 5662 5661 5661 5660 5659 5658 5657 5656 5655 5653 5653 5652 5652 5650 5649 5648 5647 5646
5689 5688 5687 5685 5684 5683 5681 5680 5679 5677 5676 5675 5674 5672 5671 5669 5668 5667 5665 5664 5663 5662 5661 5660 5659 5659 5657 5656 5656 5655 5655 5654 5653 5652 5651 5650 5649 5649 5648 5647 5646 5645 5644 5643
5678 5677 5676 5674 5673 5672 5671 5670 5669 5668 5667 5666 5665 5664 5663 5662 5661 5660 5659 5657 5657 5656 5655 5655 5654 5653 5652 5652 5651 5651 5650 5650 5649 5649 5648 5647 5646 5646 5645 5644 5642 5642 5641 5640
5666 5665 5664 5663 5662 5661 5660 5660 5659 5658 5658 5657 5657 5656 5655 5654 5654 5653 5652 5651 5650 5649 5649 5649 5648 5648 5647 5646 5646 5646 5645 5645 5645 5645 5644 5644 5643 5642 5641 5640 5639 5638 5637 5636
5654 5654 5653 5652 5651 5651 5650 5649 5649 5649 5648 5648 5648 5648 5647 5647 5646 5646 5645 5644 5644 5643 5643 5643 5642 5642 5642 5641 5641 5641 5641 5641 5641 5641 5640 5640 5639 5638 5637 5637 5636 5635 5634 5633
5642 5642 5642 5641 5641 5640 5640 5640 5640 5640 5640 5640 5640 5639 5639 5639 5639 5638 5638 5638 5638 5637 5636 5636 5637 5636 5636 5636 5636 5636 5636 5636 5636 5636 5636 5635 5635 5634 5634 5633 5632 5631 5630 5629